Siga o Apolo11 no Facebook   Siga o Apolo11 no Twiiter
Ciência, Espaço e Tecnologia




Elementos Keplerianos formato Two Line

Para que um programa de rastreio possa saber a localização exata de qualquer satélite no espaço e assim poder rastreá-lo corretamente, é necessário que ele seja carregado com algumas informações.

Estas informações são chamadas de Elementos Orbitais ou Elementos Keplerianos e consistem em 2 linhas com dezenas de números. Esses números nada mais são que os parâmetros orbitais do satélite, tais como altitude, atitude, excentricidade da órbita, número de órbitas por dia, etc.

Com base nestas informações o programa é capaz de determinar com bastante exatidão a posição de qualquer satélite no espaço e nos informar em qual horário este estará dentro do alcance de nossa estação. Para que isso seja feito com precisão é necessário que os dados estejam sempre bem atualizadas.

Devido aos parâmetros orbitais serem descritos em 2 linhas, estes formato é também conhecido internacionalmente por 2line (leia-se Two Line”).

Para atualizar seu programa de rastreio basta copiar os dados disponibilizados e fornece-los ao programa. Nossos elementos orbitais são atualizados diariamente.

NOAATodos os satélites ambientais da série NOAA
30 DiasSatélites lançados nos últimos 30 dias
ISSSatélites e foguetes relacionados à Estação Espacial Internacional
HAMSatélites construídos por radiomadores
CUBESatélites tipo cubo, com 10 centímetros de lado
METEOSatélites voltados à previsão do tempo
EDUSatélites construídos e operados por universidades
VIS100 satélites mais brilhantes que podem ser vistos a olho nú



Satélites série NOAA
NOAA 1 [-]              
1 04793U 70106A   21015.57355010 -.00000031  00000-0  81779-4 0  9993
2 04793 101.6305  85.8796 0031545 248.1267 248.6521 12.53997740292673
NOAA 2 (ITOS-D) [-]     
1 06235U 72082A   21015.89198649 -.00000050  00000-0 -25572-4 0  9990
2 06235 101.8841 351.4030 0004177 348.7793  25.8088 12.53131423207147
NOAA 3 [-]              
1 06920U 73086A   21015.67890205 -.00000044  00000-0  11525-4 0  9994
2 06920 102.1377 352.1365 0006201 165.1332   7.6686 12.40341851136591
NOAA 4 [-]              
1 07529U 74089A   21015.67182167 -.00000051  00000-0 -33888-4 0  9990
2 07529 101.8418 350.3551 0009262  17.6721 155.3133 12.53147110111686
NOAA 5 [-]              
1 09057U 76077A   21015.66115307 -.00000044  00000-0  53984-5 0  9999
2 09057 102.0207 345.8497 0010211  16.2225 157.0812 12.37757195  9671
TIROS N [-]             
1 11060U 78096A   21015.89839137  .00000023  00000-0  32197-4 0  9996
2 11060  98.7116  76.2581 0010619 186.5616 173.5422 14.18293018398248
NOAA 6 [-]              
1 11416U 79057A   21015.76231423  .00000036  00000-0  29274-4 0  9995
2 11416  98.6638  20.7906 0010137 351.9817   8.1203 14.33613223167348
NOAA 7 [-]              
1 12553U 81059A   21015.83462817  .00000015  00000-0  30073-4 0  9990
2 12553  99.0654  46.8452 0012081 142.7094 217.4920 14.17287730 44473
NOAA 8 [-]              
1 13923U 83022A   21015.89852457 -.00000003  00000-0  16197-4 0  9992
2 13923  98.6406   4.8468 0014137 285.5259  74.4361 14.28723128968506
NOAA 9 [-]              
1 15427U 84123A   21015.83932501 -.00000004  00000-0  20924-4 0  9993
2 15427  98.9728 337.2828 0014564 190.4319 198.7480 14.16119136863359
NOAA 10 [-]             
1 16969U 86073A   21015.90660098  .00000003  00000-0  18413-4 0  9996
2 16969  98.5203   8.0920 0012857  35.0826 343.7617 14.28121068787226
NOAA 11 [-]             
1 19531U 88089A   21015.76798832 -.00000013  00000-0  14295-4 0  9991
2 19531  98.4055  29.1322 0010332 227.6260 132.4041 14.15266419667592
NOAA 12 [-]             
1 21263U 91032A   21015.92994159 -.00000016  00000-0  10913-4 0  9992
2 21263  98.5048  25.6744 0014594  56.7129 303.5447 14.25930394542974
NOAA 13 [-]             
1 22739U 93050A   21015.74255993 -.00000024  00000-0  87867-5 0  9991
2 22739  98.4611  17.8584 0010078  32.8447 327.3351 14.12772992413951
NOAA 14 [-]             
1 23455U 94089A   21015.85751864 -.00000024  00000-0  92984-5 0  9996
2 23455  98.5147  63.7767 0009689  18.0351 342.1164 14.14155377343550
NOAA 15 [B]             
1 25338U 98030A   21016.10850664  .00000021  00000-0  27462-4 0  9999
2 25338  98.6986  45.8684 0010476  10.0956 350.0432 14.26008807179531
NOAA 16 [-]             
1 26536U 00055A   21015.87507285 -.00000009  00000-0  17934-4 0  9991
2 26536  98.7088  85.6085 0010287 196.3721 163.7121 14.13268239344240
NOAA 17 [-]             
1 27453U 02032A   21016.11571975 -.00000019  00000-0  10491-4 0  9994
2 27453  98.6118 324.2955 0011394 343.0998  16.9801 14.25085376965185
NOAA 18 [B]             
1 28654U 05018A   21016.15931770  .00000099  00000-0  78025-4 0  9996
2 28654  99.0164  80.2737 0014005 355.6807   4.4241 14.12573314807031
NOAA 19 [+]             
1 33591U 09005A   21016.10850439  .00000027  00000-0  39867-4 0  9991
2 33591  99.1927  32.9631 0013696 196.2436 163.8298 14.12448643615411
SUOMI NPP [+]           
1 37849U 11061A   21016.13729998  .00000018  00000-0  29356-4 0  9996
2 37849  98.7241 316.9574 0001350  64.2783  61.0260 14.19547850477791
NOAA 20 [+]             
1 43013U 17073A   21016.14826457  .00000012  00000-0  26374-4 0  9995
2 43013  98.7406 316.9938 0001366  88.5255 271.6077 14.19547848163837


IMAGENS DE SATÉLITES !    Clique e conheça nosso Vídeo Workshop de sensoriamento remoto e imagens meteorológicas.
Apolo11.com - Todos os direitos reservados - 2001 - 2021
Política de Privacidade

"Um instante mais e estarás esquecido de tudo; mais um instante, e todos estarão esquecidos de ti" - Marco Aurélio